Flag for U.S.A. Weather past 2 weeks in Aurora, Colorado, U.S.A.

Now
60 °F

Passing clouds.


Feels Like: 60 °F
Forecast: 56 / 75 °F
Wind: 6 mph from South

Location: Buckley Air Force Base

Current Time: Sep 20, 2014 at 4:12:31 AM

Latest Report: Sep 20, 2014 at 2:58 AM


Visibility: 10 mi

Pressure: 29.92 "Hg

Humidity: 60%

Dew point: 46 °F

Location of AuroraLocation

Historic Weather in Aurora — Graph

°F

Aurora temperature yesterday

Maximum temperature yesterday: 86 °F (at 3:58 PM)
Minimum temperature yesterday: 63 °F (at 2:58 AM)
Average temperature yesterday: 73 °F

Past Weeks' High & Low Weather Summary

 TemperatureHumidityPressure
High88 °F (Sep 17, 3:58 PM)100% (Sep 6, 4:58 AM)30.51 "Hg (Sep 6, 4:58 AM)
Low32 °F (Sep 12, 5:58 AM)14% (Sep 14, 1:58 PM)29.66 "Hg (Sep 9, 12:58 PM)
Average62 °F59%30.00 "Hg
* Reported Sep 5 2:58 AM — Sep 20 2:58 AM, Aurora, Weather by CustomWeather, © 2014

Note: Actual official high and low records may vary slightly from our data, if they occured in-between our weather recording intervals... More about our weather records

Advertising

Aurora weather history for previous 24 hours

 ConditionsComfort  
Time TempWeatherWind HumidityBarometerVisibility
2:58 AM
Sep 20
60 °FPassing clouds.6 mph60%29.92 "Hg10 mi
1:58 AM61 °FPassing clouds.8 mph57%29.90 "Hg10 mi
12:58 AM63 °FPassing clouds.5 mph53%29.90 "Hg10 mi
11:58 PM
Sep 19
64 °FPassing clouds.8 mph53%29.88 "Hg10 mi
10:58 PM67 °FPassing clouds.7 mph48%29.89 "Hg10 mi
9:58 PM65 °FPassing clouds.6 mph47%29.86 "Hg10 mi
8:58 PM68 °FPassing clouds.8 mph41%29.83 "Hg10 mi
7:58 PM70 °FScattered clouds.10 mph38%29.82 "Hg10 mi
6:58 PM74 °FScattered clouds.8 mph34%29.80 "Hg10 mi
5:58 PM80 °FPartly sunny.7 mph27%29.76 "Hg10 mi
4:58 PM86 °FScattered clouds.10 mph20%29.74 "Hg10 mi
3:58 PM86 °FPassing clouds.5 mph20%29.74 "Hg10 mi
2:58 PM84 °FPassing clouds.6 mph22%29.76 "Hg10 mi
1:58 PM84 °FPassing clouds.2 mph22%29.78 "Hg10 mi
12:58 PM82 °FPassing clouds.8 mph23%29.80 "Hg10 mi
11:58 AM80 °FPassing clouds.10 mph25%29.82 "Hg10 mi
10:58 AM76 °FPassing clouds.12 mph29%29.83 "Hg10 mi
9:58 AM77 °FPassing clouds.8 mph26%29.80 "Hg10 mi
8:58 AM72 °FPassing clouds.9 mph30%29.79 "Hg10 mi
7:58 AM67 °FPassing clouds.9 mph32%29.79 "Hg10 mi
6:58 AM64 °FPassing clouds.15 mph33%29.77 "Hg10 mi
5:58 AM64 °FClear.15 mph35%29.74 "Hg10 mi
4:58 AM67 °FClear.17 mph27%29.72 "Hg10 mi
Weather by CustomWeather, © 2014

See weather overviewHow to use our weather pages